Year,Month,Day,Hour,Minute,Value (Times are PST for temperature in C)
2012,10,08,00,00,10.20
2012,10,08,00,01,10.20
2012,10,08,00,02,10.20
2012,10,08,00,03,10.20
2012,10,08,00,04,10.30
2012,10,08,00,05,10.30
2012,10,08,00,06,10.30
2012,10,08,00,07,10.30
2012,10,08,00,08,10.20
2012,10,08,00,09,10.20
2012,10,08,00,10,10.20
2012,10,08,00,11,10.10
2012,10,08,00,12,10.10
2012,10,08,00,13,10.10
2012,10,08,00,14,10.10
2012,10,08,00,15,9.90
2012,10,08,00,16,9.90
2012,10,08,00,17,9.90
2012,10,08,00,18,9.90
2012,10,08,00,19,9.90
2012,10,08,00,20,9.80
2012,10,08,00,21,9.80
2012,10,08,00,22,9.80
2012,10,08,00,23,9.80
2012,10,08,00,24,9.80
2012,10,08,00,25,9.70
2012,10,08,00,26,9.70
2012,10,08,00,27,9.70
2012,10,08,00,28,9.70
2012,10,08,00,29,9.70
2012,10,08,00,30,9.70
2012,10,08,00,31,9.60
2012,10,08,00,32,9.60
2012,10,08,00,33,9.60
2012,10,08,00,34,9.60
2012,10,08,00,35,9.50
2012,10,08,00,36,9.50
2012,10,08,00,37,9.50
2012,10,08,00,38,9.50
2012,10,08,00,39,9.50
2012,10,08,00,40,9.50
2012,10,08,00,41,9.50
2012,10,08,00,42,9.50
2012,10,08,00,43,9.50
2012,10,08,00,44,9.50
2012,10,08,00,45,9.50
2012,10,08,00,46,9.50
2012,10,08,00,47,9.50
2012,10,08,00,48,9.50
2012,10,08,00,49,9.50
2012,10,08,00,50,9.50
2012,10,08,00,51,9.50
2012,10,08,00,52,9.40
2012,10,08,00,53,9.40
2012,10,08,00,54,9.40
2012,10,08,00,55,9.40
2012,10,08,00,56,9.30
2012,10,08,00,57,9.30
2012,10,08,00,58,9.30
2012,10,08,00,59,9.20
2012,10,08,01,00,9.20
2012,10,08,01,01,9.20
2012,10,08,01,02,9.20
2012,10,08,01,03,9.20
2012,10,08,01,04,9.20
2012,10,08,01,05,9.20
2012,10,08,01,06,9.20
2012,10,08,01,07,9.20
2012,10,08,01,08,9.20
2012,10,08,01,09,9.20
2012,10,08,01,10,9.20
2012,10,08,01,11,9.20
2012,10,08,01,12,9.20
2012,10,08,01,13,9.20
2012,10,08,01,14,9.20
2012,10,08,01,15,9.20
2012,10,08,01,16,9.20
2012,10,08,01,17,9.20
2012,10,08,01,18,9.20
2012,10,08,01,19,9.20
2012,10,08,01,20,9.20
2012,10,08,01,21,9.20
2012,10,08,01,22,9.20
2012,10,08,01,23,9.20
2012,10,08,01,24,9.20
2012,10,08,01,25,9.30
2012,10,08,01,26,9.30
2012,10,08,01,27,9.30
2012,10,08,01,28,9.30
2012,10,08,01,29,9.30
2012,10,08,01,30,9.20
2012,10,08,01,31,9.30
2012,10,08,01,32,9.30
2012,10,08,01,33,9.20
2012,10,08,01,34,9.20
2012,10,08,01,35,9.20
2012,10,08,01,36,9.20
2012,10,08,01,37,9.30
2012,10,08,01,38,9.30
2012,10,08,01,39,9.30
2012,10,08,01,40,9.30
2012,10,08,01,41,9.40
2012,10,08,01,42,9.40
2012,10,08,01,43,9.40
2012,10,08,01,44,9.40
2012,10,08,01,45,9.40
2012,10,08,01,46,9.40
2012,10,08,01,47,9.40
2012,10,08,01,48,9.50
2012,10,08,01,49,9.50
2012,10,08,01,50,9.60
2012,10,08,01,51,9.60
2012,10,08,01,52,9.60
2012,10,08,01,53,9.70
2012,10,08,01,54,9.70
2012,10,08,01,55,9.60
2012,10,08,01,56,9.60
2012,10,08,01,57,9.60
2012,10,08,01,58,9.60
2012,10,08,01,59,9.60
2012,10,08,02,00,9.60
2012,10,08,02,01,9.60
2012,10,08,02,02,9.60
2012,10,08,02,03,9.60
2012,10,08,02,04,9.60
2012,10,08,02,05,9.50
2012,10,08,02,06,9.50
2012,10,08,02,07,9.50
2012,10,08,02,08,9.40
2012,10,08,02,09,9.30
2012,10,08,02,10,9.30
2012,10,08,02,11,9.30
2012,10,08,02,12,9.30
2012,10,08,02,13,9.20
2012,10,08,02,14,9.20
2012,10,08,02,15,9.20
2012,10,08,02,16,9.20
2012,10,08,02,17,9.20
2012,10,08,02,18,9.10
2012,10,08,02,19,9.10
2012,10,08,02,20,9.10
2012,10,08,02,21,9.20
2012,10,08,02,22,9.10
2012,10,08,02,23,9.10
2012,10,08,02,24,9.10
2012,10,08,02,25,9.10
2012,10,08,02,26,9.10
2012,10,08,02,27,9.20
2012,10,08,02,28,9.20
2012,10,08,02,29,9.20
2012,10,08,02,30,9.20
2012,10,08,02,31,9.20
2012,10,08,02,32,9.20
2012,10,08,02,33,9.20
2012,10,08,02,34,9.20
2012,10,08,02,35,9.20
2012,10,08,02,36,9.20
2012,10,08,02,37,9.20
2012,10,08,02,38,9.20
2012,10,08,02,39,9.10
2012,10,08,02,40,9.10
2012,10,08,02,41,9.10
2012,10,08,02,42,9.00
2012,10,08,02,43,9.00
2012,10,08,02,44,9.00
2012,10,08,02,45,9.00
2012,10,08,02,46,8.90
2012,10,08,02,47,8.90
2012,10,08,02,48,8.90
2012,10,08,02,49,8.90
2012,10,08,02,50,9.00
2012,10,08,02,51,9.00
2012,10,08,02,52,9.00
2012,10,08,02,53,9.00
2012,10,08,02,54,8.90
2012,10,08,02,55,8.90
2012,10,08,02,56,8.90
2012,10,08,02,57,8.90
2012,10,08,02,58,8.90
2012,10,08,02,59,8.90
2012,10,08,03,00,8.80
2012,10,08,03,01,8.80
2012,10,08,03,02,8.80
2012,10,08,03,03,8.70
2012,10,08,03,04,8.70
2012,10,08,03,05,8.70
2012,10,08,03,06,8.60
2012,10,08,03,07,8.50
2012,10,08,03,08,8.50
2012,10,08,03,09,8.40
2012,10,08,03,10,8.40
2012,10,08,03,11,8.30
2012,10,08,03,12,8.30
2012,10,08,03,13,8.30
2012,10,08,03,14,8.20
2012,10,08,03,15,8.20
2012,10,08,03,16,8.20
2012,10,08,03,17,8.20
2012,10,08,03,18,8.20
2012,10,08,03,19,8.20
2012,10,08,03,20,8.20
2012,10,08,03,21,8.20
2012,10,08,03,22,8.20
2012,10,08,03,23,8.20
2012,10,08,03,24,8.20
2012,10,08,03,25,8.20
2012,10,08,03,26,8.20
2012,10,08,03,27,8.20
2012,10,08,03,28,8.20
2012,10,08,03,29,8.20
2012,10,08,03,30,8.20
2012,10,08,03,31,8.20
2012,10,08,03,32,8.20
2012,10,08,03,33,8.20
2012,10,08,03,34,8.20
2012,10,08,03,35,8.10
2012,10,08,03,36,8.10
2012,10,08,03,37,8.10
2012,10,08,03,38,8.10
2012,10,08,03,39,8.00
2012,10,08,03,40,8.00
2012,10,08,03,41,8.00
2012,10,08,03,42,8.00
2012,10,08,03,43,8.00
2012,10,08,03,44,7.90
2012,10,08,03,45,7.90
2012,10,08,03,46,7.90
2012,10,08,03,47,7.90
2012,10,08,03,48,7.90
2012,10,08,03,49,7.90
2012,10,08,03,50,7.90
2012,10,08,03,51,7.90
2012,10,08,03,52,7.90
2012,10,08,03,53,7.80
2012,10,08,03,54,7.80
2012,10,08,03,55,7.80
2012,10,08,03,56,7.80
2012,10,08,03,57,7.80
2012,10,08,03,58,7.80
2012,10,08,03,59,7.80
2012,10,08,04,00,7.80
2012,10,08,04,01,7.80
2012,10,08,04,02,7.80
2012,10,08,04,03,7.80
2012,10,08,04,04,7.90
2012,10,08,04,05,7.90
2012,10,08,04,06,7.90
2012,10,08,04,07,8.00
2012,10,08,04,08,8.00
2012,10,08,04,09,8.00
2012,10,08,04,10,8.00
2012,10,08,04,11,8.10
2012,10,08,04,12,8.10
2012,10,08,04,13,8.10
2012,10,08,04,14,8.10
2012,10,08,04,15,8.10
2012,10,08,04,16,8.00
2012,10,08,04,17,8.00
2012,10,08,04,18,8.00
2012,10,08,04,19,8.00
2012,10,08,04,20,7.90
2012,10,08,04,21,7.90
2012,10,08,04,22,7.90
2012,10,08,04,23,7.90
2012,10,08,04,24,7.80
2012,10,08,04,25,7.80
2012,10,08,04,26,7.80
2012,10,08,04,27,7.80
2012,10,08,04,28,7.80
2012,10,08,04,29,7.80
2012,10,08,04,30,7.80
2012,10,08,04,31,7.80
2012,10,08,04,32,7.80
2012,10,08,04,33,7.80
2012,10,08,04,34,7.80
2012,10,08,04,35,7.80
2012,10,08,04,36,7.80
2012,10,08,04,37,7.80
2012,10,08,04,38,7.80
2012,10,08,04,39,7.80
2012,10,08,04,40,7.90
2012,10,08,04,41,8.00
2012,10,08,04,42,8.00
2012,10,08,04,43,8.00
2012,10,08,04,44,8.10
2012,10,08,04,45,8.10
2012,10,08,04,46,8.20
2012,10,08,04,47,8.20
2012,10,08,04,48,8.20
2012,10,08,04,49,8.20
2012,10,08,04,50,8.20
2012,10,08,04,51,8.20
2012,10,08,04,52,8.20
2012,10,08,04,53,8.20
2012,10,08,04,54,8.20
2012,10,08,04,55,8.20
2012,10,08,04,56,8.20
2012,10,08,04,57,8.30
2012,10,08,04,58,8.30
2012,10,08,04,59,8.30
2012,10,08,05,00,8.30
2012,10,08,05,01,8.30
2012,10,08,05,02,8.20
2012,10,08,05,03,8.20
2012,10,08,05,04,8.10
2012,10,08,05,05,8.00
2012,10,08,05,06,8.00
2012,10,08,05,07,7.90
2012,10,08,05,08,7.80
2012,10,08,05,09,7.80
2012,10,08,05,10,7.80
2012,10,08,05,11,7.70
2012,10,08,05,12,7.70
2012,10,08,05,13,7.60
2012,10,08,05,14,7.60
2012,10,08,05,15,7.60
2012,10,08,05,16,7.60
2012,10,08,05,17,7.50
2012,10,08,05,18,7.50
2012,10,08,05,19,7.50
2012,10,08,05,20,7.50
2012,10,08,05,21,7.50
2012,10,08,05,22,7.40
2012,10,08,05,23,7.40
2012,10,08,05,24,7.40
2012,10,08,05,25,7.40
2012,10,08,05,26,7.40
2012,10,08,05,27,7.40
2012,10,08,05,28,7.50
2012,10,08,05,29,7.50
2012,10,08,05,30,7.50
2012,10,08,05,31,7.50
2012,10,08,05,32,7.60
2012,10,08,05,33,7.60
2012,10,08,05,34,7.70
2012,10,08,05,35,7.80
2012,10,08,05,36,7.80
2012,10,08,05,37,7.80
2012,10,08,05,38,7.80
2012,10,08,05,39,7.80
2012,10,08,05,40,7.80
2012,10,08,05,41,7.80
2012,10,08,05,42,7.80
2012,10,08,05,43,7.80
2012,10,08,05,44,7.80
2012,10,08,05,45,7.80
2012,10,08,05,46,7.80
2012,10,08,05,47,7.80
2012,10,08,05,48,7.80
2012,10,08,05,49,7.90
2012,10,08,05,50,7.90
2012,10,08,05,51,7.90
2012,10,08,05,52,8.00
2012,10,08,05,53,8.00
2012,10,08,05,54,8.00
2012,10,08,05,55,8.10
2012,10,08,05,56,8.10
2012,10,08,05,57,8.20
2012,10,08,05,58,8.20
2012,10,08,05,59,8.20
2012,10,08,06,00,8.20
2012,10,08,06,01,8.20
2012,10,08,06,02,8.20
2012,10,08,06,03,8.20
2012,10,08,06,04,8.20
2012,10,08,06,05,8.20
2012,10,08,06,06,8.20
2012,10,08,06,07,8.20
2012,10,08,06,08,8.20
2012,10,08,06,09,8.20
2012,10,08,06,10,8.20
2012,10,08,06,11,8.20
2012,10,08,06,12,8.20
2012,10,08,06,13,8.20
2012,10,08,06,14,8.20
2012,10,08,06,15,8.20
2012,10,08,06,16,8.20
2012,10,08,06,17,8.20
2012,10,08,06,18,8.20
2012,10,08,06,19,8.20
2012,10,08,06,20,8.20
2012,10,08,06,21,8.20
2012,10,08,06,22,8.20
2012,10,08,06,23,8.20
2012,10,08,06,24,8.20
2012,10,08,06,25,8.20
2012,10,08,06,26,8.20
2012,10,08,06,27,8.20
2012,10,08,06,28,8.20
2012,10,08,06,29,8.10
2012,10,08,06,30,8.10
2012,10,08,06,31,8.00
2012,10,08,06,32,8.00
2012,10,08,06,33,7.90
2012,10,08,06,34,7.90
2012,10,08,06,35,7.90
2012,10,08,06,36,7.80
2012,10,08,06,37,7.80
2012,10,08,06,38,7.80
2012,10,08,06,39,7.70
2012,10,08,06,40,7.70
2012,10,08,06,41,7.60
2012,10,08,06,42,7.60
2012,10,08,06,43,7.60
2012,10,08,06,44,7.60
2012,10,08,06,45,7.70
2012,10,08,06,46,7.70
2012,10,08,06,47,7.70
2012,10,08,06,48,7.80
2012,10,08,06,49,7.80
2012,10,08,06,50,7.80
2012,10,08,06,51,7.70
2012,10,08,06,52,7.70
2012,10,08,06,53,7.70
2012,10,08,06,54,7.70
2012,10,08,06,55,7.70
2012,10,08,06,56,7.70
2012,10,08,06,57,7.70
2012,10,08,06,58,7.70
2012,10,08,06,59,7.70
2012,10,08,07,00,7.70
2012,10,08,07,01,7.60
2012,10,08,07,02,7.60
2012,10,08,07,03,7.60
2012,10,08,07,04,7.60
2012,10,08,07,05,7.50
2012,10,08,07,06,7.50
2012,10,08,07,07,7.50
2012,10,08,07,08,7.50
2012,10,08,07,09,7.50
2012,10,08,07,10,7.50
2012,10,08,07,11,7.50
2012,10,08,07,12,7.50
2012,10,08,07,13,7.60
2012,10,08,07,14,7.60
2012,10,08,07,15,7.60
2012,10,08,07,16,7.70
2012,10,08,07,17,7.70
2012,10,08,07,18,7.70
2012,10,08,07,19,7.70
2012,10,08,07,20,7.80
2012,10,08,07,21,7.80
2012,10,08,07,22,7.80
2012,10,08,07,23,7.80
2012,10,08,07,24,7.80
2012,10,08,07,25,7.80
2012,10,08,07,26,7.80
2012,10,08,07,27,7.80
2012,10,08,07,28,7.80
2012,10,08,07,29,7.90
2012,10,08,07,30,7.90
2012,10,08,07,31,7.90
2012,10,08,07,32,7.80
2012,10,08,07,33,7.80
2012,10,08,07,34,7.80
2012,10,08,07,35,7.80
2012,10,08,07,36,7.80
2012,10,08,07,37,7.80
2012,10,08,07,38,7.80
2012,10,08,07,39,7.80
2012,10,08,07,40,7.80
2012,10,08,07,41,7.80
2012,10,08,07,42,7.80
2012,10,08,07,43,7.80
2012,10,08,07,44,7.80
2012,10,08,07,45,7.80
2012,10,08,07,46,7.80
2012,10,08,07,47,7.80
2012,10,08,07,48,7.80
2012,10,08,07,49,7.80
2012,10,08,07,50,7.80
2012,10,08,07,51,7.80
2012,10,08,07,52,7.80
2012,10,08,07,53,7.80
2012,10,08,07,54,7.90
2012,10,08,07,55,7.90
2012,10,08,07,56,7.90
2012,10,08,07,57,7.90
2012,10,08,07,58,8.00
2012,10,08,07,59,8.00
2012,10,08,08,00,8.00
2012,10,08,08,01,8.00
2012,10,08,08,02,8.10
2012,10,08,08,03,8.20
2012,10,08,08,04,8.30
2012,10,08,08,05,8.50
2012,10,08,08,06,8.60
2012,10,08,08,07,8.70
2012,10,08,08,08,8.90
2012,10,08,08,09,8.90
2012,10,08,08,10,9.00
2012,10,08,08,11,9.10
2012,10,08,08,12,9.10
2012,10,08,08,13,9.20
2012,10,08,08,14,9.20
2012,10,08,08,15,9.20
2012,10,08,08,16,9.30
2012,10,08,08,17,9.40
2012,10,08,08,18,9.50
2012,10,08,08,19,9.50
2012,10,08,08,20,9.60
2012,10,08,08,21,9.70
2012,10,08,08,22,9.70
2012,10,08,08,23,9.80
2012,10,08,08,24,9.90
2012,10,08,08,25,9.90
2012,10,08,08,26,10.00
2012,10,08,08,27,10.10
2012,10,08,08,28,10.10
2012,10,08,08,29,10.20
2012,10,08,08,30,10.30
2012,10,08,08,31,10.30
2012,10,08,08,32,10.40
2012,10,08,08,33,10.40
2012,10,08,08,34,10.50
2012,10,08,08,35,10.60
2012,10,08,08,36,10.60
2012,10,08,08,37,10.60
2012,10,08,08,38,10.70
2012,10,08,08,39,10.70
2012,10,08,08,40,10.80
2012,10,08,08,41,10.80
2012,10,08,08,42,10.90
2012,10,08,08,43,10.90
2012,10,08,08,44,11.00
2012,10,08,08,45,11.10
2012,10,08,08,46,11.10
2012,10,08,08,47,11.20
2012,10,08,08,48,11.20
2012,10,08,08,49,11.30
2012,10,08,08,50,11.30
2012,10,08,08,51,11.30
2012,10,08,08,52,11.40
2012,10,08,08,53,11.40
2012,10,08,08,54,11.40
2012,10,08,08,55,11.40
2012,10,08,08,56,11.40
2012,10,08,08,57,11.40
2012,10,08,08,58,11.40
2012,10,08,08,59,11.40
2012,10,08,09,00,11.40
2012,10,08,09,01,11.40
2012,10,08,09,02,11.40
2012,10,08,09,03,11.40
2012,10,08,09,04,11.40
2012,10,08,09,05,11.40
2012,10,08,09,06,11.50
2012,10,08,09,07,11.60
2012,10,08,09,08,11.60
2012,10,08,09,09,11.60
2012,10,08,09,10,11.60
2012,10,08,09,11,11.70
2012,10,08,09,12,11.70
2012,10,08,09,13,11.80
2012,10,08,09,14,11.80
2012,10,08,09,15,11.90
2012,10,08,09,16,11.90
2012,10,08,09,17,12.00
2012,10,08,09,18,12.00
2012,10,08,09,19,12.10
2012,10,08,09,20,12.20
2012,10,08,09,21,12.20
2012,10,08,09,22,12.30
2012,10,08,09,23,12.30
2012,10,08,09,24,12.40
2012,10,08,09,25,12.50
2012,10,08,09,26,12.60
2012,10,08,09,27,12.60
2012,10,08,09,28,12.70
2012,10,08,09,29,12.80
2012,10,08,09,30,12.80
2012,10,08,09,31,12.90
2012,10,08,09,32,13.00
2012,10,08,09,33,13.00
2012,10,08,09,34,13.10
2012,10,08,09,35,13.20
2012,10,08,09,36,13.20
2012,10,08,09,37,13.30
2012,10,08,09,38,13.30
2012,10,08,09,39,13.40
2012,10,08,09,40,13.50
2012,10,08,09,41,13.50
2012,10,08,09,42,13.60
2012,10,08,09,43,13.60
2012,10,08,09,44,13.60
2012,10,08,09,45,13.70
2012,10,08,09,46,13.70
2012,10,08,09,47,13.70
2012,10,08,09,48,13.70
2012,10,08,09,49,13.80
2012,10,08,09,50,13.80
2012,10,08,09,51,13.90
2012,10,08,09,52,13.90
2012,10,08,09,53,13.90
2012,10,08,09,54,14.00
2012,10,08,09,55,14.10
2012,10,08,09,56,14.20
2012,10,08,09,57,14.30
2012,10,08,09,58,14.30
2012,10,08,09,59,14.30
2012,10,08,10,00,14.30
2012,10,08,10,01,14.30
2012,10,08,10,02,14.20
2012,10,08,10,03,14.20
2012,10,08,10,04,14.30
2012,10,08,10,05,14.40
2012,10,08,10,06,14.50
2012,10,08,10,07,14.60
2012,10,08,10,08,14.60
2012,10,08,10,09,14.60
2012,10,08,10,10,14.70
2012,10,08,10,11,14.80
2012,10,08,10,12,14.80
2012,10,08,10,13,14.80
2012,10,08,10,14,14.80
2012,10,08,10,15,14.70
2012,10,08,10,16,14.70
2012,10,08,10,17,14.80
2012,10,08,10,18,14.80
2012,10,08,10,19,14.80
2012,10,08,10,20,14.90
2012,10,08,10,21,14.90
2012,10,08,10,22,14.90
2012,10,08,10,23,15.00
2012,10,08,10,24,15.10
2012,10,08,10,25,15.10
2012,10,08,10,26,15.10
2012,10,08,10,27,15.20
2012,10,08,10,28,15.20
2012,10,08,10,29,15.30
2012,10,08,10,30,15.30
2012,10,08,10,31,15.40
2012,10,08,10,32,15.50
2012,10,08,10,33,15.50
2012,10,08,10,34,15.50
2012,10,08,10,35,15.60
2012,10,08,10,36,15.60
2012,10,08,10,37,15.70
2012,10,08,10,38,15.70
2012,10,08,10,39,15.80
2012,10,08,10,40,15.80
2012,10,08,10,41,15.80
2012,10,08,10,42,15.80
2012,10,08,10,43,15.80
2012,10,08,10,44,15.80
2012,10,08,10,45,15.80
2012,10,08,10,46,15.80
2012,10,08,10,47,15.80
2012,10,08,10,48,15.80
2012,10,08,10,49,15.70
2012,10,08,10,50,15.60
2012,10,08,10,51,15.40
2012,10,08,10,52,15.30
2012,10,08,10,53,15.10
2012,10,08,10,54,15.00
2012,10,08,10,55,14.80
2012,10,08,10,56,14.80
2012,10,08,10,57,14.60
2012,10,08,10,58,14.50
2012,10,08,10,59,14.40
2012,10,08,11,00,14.20
2012,10,08,11,01,14.20
2012,10,08,11,02,14.20
2012,10,08,11,03,14.20
2012,10,08,11,04,14.10
2012,10,08,11,05,14.10
2012,10,08,11,06,14.00
2012,10,08,11,07,14.00
2012,10,08,11,08,14.00
2012,10,08,11,09,14.20
2012,10,08,11,10,14.20
2012,10,08,11,11,14.30
2012,10,08,11,12,14.30
2012,10,08,11,13,14.50
2012,10,08,11,14,14.50
2012,10,08,11,15,14.60
2012,10,08,11,16,14.60
2012,10,08,11,17,14.70
2012,10,08,11,18,14.70
2012,10,08,11,19,14.70
2012,10,08,11,20,14.70
2012,10,08,11,21,14.80
2012,10,08,11,22,14.90
2012,10,08,11,23,15.10
2012,10,08,11,24,15.30
2012,10,08,11,25,15.40
2012,10,08,11,26,15.50
2012,10,08,11,27,15.60
2012,10,08,11,28,15.70
2012,10,08,11,29,15.80
2012,10,08,11,30,15.80
2012,10,08,11,31,15.80
2012,10,08,11,32,15.80
2012,10,08,11,33,15.80
2012,10,08,11,34,15.70
2012,10,08,11,35,15.70
2012,10,08,11,36,15.70
2012,10,08,11,37,15.70
2012,10,08,11,38,15.80
2012,10,08,11,39,15.90
2012,10,08,11,40,15.90
2012,10,08,11,41,16.00
2012,10,08,11,42,16.10
2012,10,08,11,43,16.20
2012,10,08,11,44,16.30
2012,10,08,11,45,16.40
2012,10,08,11,46,16.40
2012,10,08,11,47,16.30
2012,10,08,11,48,16.30
2012,10,08,11,49,16.40
2012,10,08,11,50,16.40
2012,10,08,11,51,16.40
2012,10,08,11,52,16.40
2012,10,08,11,53,16.40
2012,10,08,11,54,16.40
2012,10,08,11,55,16.40
2012,10,08,11,56,16.40
2012,10,08,11,57,16.40
2012,10,08,11,58,16.40
2012,10,08,11,59,16.40
2012,10,08,12,00,16.40
2012,10,08,12,01,16.40
2012,10,08,12,02,16.30
2012,10,08,12,03,16.30
2012,10,08,12,04,16.30
2012,10,08,12,05,16.30
2012,10,08,12,06,16.30
2012,10,08,12,07,16.30
2012,10,08,12,08,16.30
2012,10,08,12,09,16.30
2012,10,08,12,10,16.30
2012,10,08,12,11,16.40
2012,10,08,12,12,16.40
2012,10,08,12,13,16.40
2012,10,08,12,14,16.40
2012,10,08,12,15,16.60
2012,10,08,12,16,16.60
2012,10,08,12,17,16.60
2012,10,08,12,18,16.70
2012,10,08,12,19,16.70
2012,10,08,12,20,16.70
2012,10,08,12,21,16.70
2012,10,08,12,22,16.70
2012,10,08,12,23,16.70
2012,10,08,12,24,16.70
2012,10,08,12,25,16.80
2012,10,08,12,26,16.80
2012,10,08,12,27,16.80
2012,10,08,12,28,16.90
2012,10,08,12,29,16.90
2012,10,08,12,30,16.90
2012,10,08,12,31,16.80
2012,10,08,12,32,16.90
2012,10,08,12,33,16.90
2012,10,08,12,34,16.90
2012,10,08,12,35,16.90
2012,10,08,12,36,16.90
2012,10,08,12,37,16.90
2012,10,08,12,38,16.90
2012,10,08,12,39,16.90
2012,10,08,12,40,16.90
2012,10,08,12,41,16.90
2012,10,08,12,42,17.00
2012,10,08,12,43,17.20
2012,10,08,12,44,17.30
2012,10,08,12,45,17.50
2012,10,08,12,46,17.50
2012,10,08,12,47,17.50
2012,10,08,12,48,17.50
2012,10,08,12,49,17.60
2012,10,08,12,50,17.70
2012,10,08,12,51,17.90
2012,10,08,12,52,17.90
2012,10,08,12,53,17.90
2012,10,08,12,54,17.90
2012,10,08,12,55,17.90
2012,10,08,12,56,17.90
2012,10,08,12,57,17.80
2012,10,08,12,58,17.80
2012,10,08,12,59,17.90
2012,10,08,13,00,17.90
2012,10,08,13,01,17.90
2012,10,08,13,02,18.10
2012,10,08,13,03,18.10
2012,10,08,13,04,18.10
2012,10,08,13,05,18.20
2012,10,08,13,06,18.30
2012,10,08,13,07,18.30
2012,10,08,13,08,18.30
2012,10,08,13,09,18.30
2012,10,08,13,10,18.30
2012,10,08,13,11,18.20
2012,10,08,13,12,18.10
2012,10,08,13,13,18.00
2012,10,08,13,14,17.90
2012,10,08,13,15,17.90
2012,10,08,13,16,17.90
2012,10,08,13,17,17.90
2012,10,08,13,18,17.90
2012,10,08,13,19,17.90
2012,10,08,13,20,17.90
2012,10,08,13,21,17.80
2012,10,08,13,22,17.70
2012,10,08,13,23,17.70
2012,10,08,13,24,17.70
2012,10,08,13,25,17.80
2012,10,08,13,26,17.80
2012,10,08,13,27,17.80
2012,10,08,13,28,17.70
2012,10,08,13,29,17.70
2012,10,08,13,30,17.70
2012,10,08,13,31,17.60
2012,10,08,13,32,17.60
2012,10,08,13,33,17.70
2012,10,08,13,34,17.80
2012,10,08,13,35,17.90
2012,10,08,13,36,18.10
2012,10,08,13,37,18.00
2012,10,08,13,38,17.90
2012,10,08,13,39,18.00
2012,10,08,13,40,18.20
2012,10,08,13,41,18.20
2012,10,08,13,42,18.30
2012,10,08,13,43,18.40
2012,10,08,13,44,18.50
2012,10,08,13,45,18.60
2012,10,08,13,46,18.60
2012,10,08,13,47,18.70
2012,10,08,13,48,18.80
2012,10,08,13,49,18.90
2012,10,08,13,50,18.90
2012,10,08,13,51,18.80
2012,10,08,13,52,18.80
2012,10,08,13,53,18.80
2012,10,08,13,54,18.80
2012,10,08,13,55,18.70
2012,10,08,13,56,18.80
2012,10,08,13,57,18.90
2012,10,08,13,58,18.90
2012,10,08,13,59,18.80
2012,10,08,14,00,18.70
2012,10,08,14,01,18.60
2012,10,08,14,02,18.50
2012,10,08,14,03,18.40
2012,10,08,14,04,18.30
2012,10,08,14,05,18.30
2012,10,08,14,06,18.30
2012,10,08,14,07,18.40
2012,10,08,14,08,18.60
2012,10,08,14,09,18.70
2012,10,08,14,10,18.70
2012,10,08,14,11,18.80
2012,10,08,14,12,19.00
2012,10,08,14,13,19.10
2012,10,08,14,14,19.30
2012,10,08,14,15,19.40
2012,10,08,14,16,19.60
2012,10,08,14,17,19.70
2012,10,08,14,18,19.90
2012,10,08,14,19,20.00
2012,10,08,14,20,20.10
2012,10,08,14,21,20.20
2012,10,08,14,22,20.20
2012,10,08,14,23,20.30
2012,10,08,14,24,20.30
2012,10,08,14,25,20.30
2012,10,08,14,26,20.30
2012,10,08,14,27,20.30
2012,10,08,14,28,20.40
2012,10,08,14,29,20.50
2012,10,08,14,30,20.50
2012,10,08,14,31,20.40
2012,10,08,14,32,20.30
2012,10,08,14,33,20.40
2012,10,08,14,34,20.40
2012,10,08,14,35,20.50
2012,10,08,14,36,20.50
2012,10,08,14,37,20.50
2012,10,08,14,38,20.60
2012,10,08,14,39,20.60
2012,10,08,14,40,20.60
2012,10,08,14,41,20.50
2012,10,08,14,42,20.50
2012,10,08,14,43,20.30
2012,10,08,14,44,20.20
2012,10,08,14,45,20.20
2012,10,08,14,46,20.20
2012,10,08,14,47,20.20
2012,10,08,14,48,20.30
2012,10,08,14,49,20.30
2012,10,08,14,50,20.30
2012,10,08,14,51,20.30
2012,10,08,14,52,20.20
2012,10,08,14,53,20.20
2012,10,08,14,54,20.30
2012,10,08,14,55,20.30
2012,10,08,14,56,20.40
2012,10,08,14,57,20.50
2012,10,08,14,58,20.60
2012,10,08,14,59,20.70
2012,10,08,15,00,20.80
2012,10,08,15,01,20.90
2012,10,08,15,02,20.90
2012,10,08,15,03,21.00
2012,10,08,15,04,21.10
2012,10,08,15,05,21.20
2012,10,08,15,06,21.30
2012,10,08,15,07,21.30
2012,10,08,15,08,21.40
2012,10,08,15,09,21.40
2012,10,08,15,10,21.50
2012,10,08,15,11,21.60
2012,10,08,15,12,21.60
2012,10,08,15,13,21.60
2012,10,08,15,14,21.60
2012,10,08,15,15,21.60
2012,10,08,15,16,21.60
2012,10,08,15,17,21.60
2012,10,08,15,18,21.50
2012,10,08,15,19,21.40
2012,10,08,15,20,21.50
2012,10,08,15,21,21.40
2012,10,08,15,22,21.20
2012,10,08,15,23,21.00
2012,10,08,15,24,20.90
2012,10,08,15,25,20.80
2012,10,08,15,26,20.80
2012,10,08,15,27,20.70
2012,10,08,15,28,20.60
2012,10,08,15,29,20.60
2012,10,08,15,30,20.60
2012,10,08,15,31,20.60
2012,10,08,15,32,20.60
2012,10,08,15,33,20.60
2012,10,08,15,34,20.60
2012,10,08,15,35,20.60
2012,10,08,15,36,20.70
2012,10,08,15,37,20.70
2012,10,08,15,38,20.80
2012,10,08,15,39,20.80
2012,10,08,15,40,20.70
2012,10,08,15,41,20.60
2012,10,08,15,42,20.50
2012,10,08,15,43,20.40
2012,10,08,15,44,20.20
2012,10,08,15,45,20.10
2012,10,08,15,46,20.00
2012,10,08,15,47,19.90
2012,10,08,15,48,19.80
2012,10,08,15,49,19.60
2012,10,08,15,50,19.40
2012,10,08,15,51,19.40
2012,10,08,15,52,19.30
2012,10,08,15,53,19.10
2012,10,08,15,54,19.10
2012,10,08,15,55,19.10
2012,10,08,15,56,19.10
2012,10,08,15,57,19.10
2012,10,08,15,58,19.10
2012,10,08,15,59,19.10
2012,10,08,16,00,19.10
2012,10,08,16,01,19.20
2012,10,08,16,02,19.20
2012,10,08,16,03,19.30
2012,10,08,16,04,19.30
2012,10,08,16,05,19.30
2012,10,08,16,06,19.30
2012,10,08,16,07,19.40
2012,10,08,16,08,19.40
2012,10,08,16,09,19.30
2012,10,08,16,10,19.20
2012,10,08,16,11,19.20
2012,10,08,16,12,19.10
2012,10,08,16,13,19.00
2012,10,08,16,14,18.90
2012,10,08,16,15,18.80
2012,10,08,16,16,18.80
2012,10,08,16,17,18.80
2012,10,08,16,18,18.70
2012,10,08,16,19,18.70
2012,10,08,16,20,18.70
2012,10,08,16,21,18.70
2012,10,08,16,22,18.60
2012,10,08,16,23,18.50
2012,10,08,16,24,18.50
2012,10,08,16,25,18.50
2012,10,08,16,26,18.50
2012,10,08,16,27,18.50
2012,10,08,16,28,18.50
2012,10,08,16,29,18.60
2012,10,08,16,30,18.60
2012,10,08,16,31,18.70
2012,10,08,16,32,18.70
2012,10,08,16,33,18.70
2012,10,08,16,34,18.80
2012,10,08,16,35,18.80
2012,10,08,16,36,18.80
2012,10,08,16,37,18.80
2012,10,08,16,38,18.80
2012,10,08,16,39,18.80
2012,10,08,16,40,18.80
2012,10,08,16,41,18.80
2012,10,08,16,42,18.80
2012,10,08,16,43,18.70
2012,10,08,16,44,18.80
2012,10,08,16,45,18.80
2012,10,08,16,46,18.80
2012,10,08,16,47,18.80
2012,10,08,16,48,18.70
2012,10,08,16,49,18.70
2012,10,08,16,50,18.70
2012,10,08,16,51,18.70
2012,10,08,16,52,18.70
2012,10,08,16,53,18.80
2012,10,08,16,54,18.80
2012,10,08,16,55,18.80
2012,10,08,16,56,18.80
2012,10,08,16,57,18.80
2012,10,08,16,58,18.90
2012,10,08,16,59,18.90
2012,10,08,17,00,19.00
2012,10,08,17,01,19.10
2012,10,08,17,02,19.10
2012,10,08,17,03,19.10
2012,10,08,17,04,19.20
2012,10,08,17,05,19.10
2012,10,08,17,06,19.10
2012,10,08,17,07,19.10
2012,10,08,17,08,19.00
2012,10,08,17,09,18.90
2012,10,08,17,10,18.90
2012,10,08,17,11,18.80
2012,10,08,17,12,18.80
2012,10,08,17,13,18.80
2012,10,08,17,14,18.80
2012,10,08,17,15,18.80
2012,10,08,17,16,18.80
2012,10,08,17,17,18.80
2012,10,08,17,18,18.90
2012,10,08,17,19,18.80
2012,10,08,17,20,18.80
2012,10,08,17,21,18.80
2012,10,08,17,22,18.80
2012,10,08,17,23,18.80
2012,10,08,17,24,18.70
2012,10,08,17,25,18.70
2012,10,08,17,26,18.70
2012,10,08,17,27,18.60
2012,10,08,17,28,18.60
2012,10,08,17,29,18.50
2012,10,08,17,30,18.40
2012,10,08,17,31,18.30
2012,10,08,17,32,18.20
2012,10,08,17,33,18.20
2012,10,08,17,34,18.10
2012,10,08,17,35,18.10
2012,10,08,17,36,18.10
2012,10,08,17,37,18.10
2012,10,08,17,38,18.10
2012,10,08,17,39,18.10
2012,10,08,17,40,18.20